Time,TemperatureF,DewpointF,PressureIn,WindDirection,WindDirectionDegrees,WindSpeedMPH,WindSpeedGustMPH,Humidity,HourlyPrecipIn,Conditions,Clouds,dailyrainin,SoftwareType,DateUTC
2013-05-17 00:01:00,57.5,49.6,29.79,North,5,0.0,0.0,75,0.00,,,0.00,Wunderground v.1.15,2013-05-17 04:01:00,
2013-05-17 00:02:00,57.5,49.6,29.79,North,5,0.0,0.0,75,0.00,,,0.00,Wunderground v.1.15,2013-05-17 04:02:00,
2013-05-17 00:03:00,57.4,49.5,29.79,North,5,0.0,0.0,75,0.00,,,0.00,Wunderground v.1.15,2013-05-17 04:03:00,
2013-05-17 00:04:00,57.4,50.0,29.79,North,5,0.0,-999.0,75,-99.99,,,0.00,weatherlink.com 1.10,2013-05-17 04:04:00,
2013-05-17 00:09:00,57.2,49.3,29.80,North,5,0.0,0.0,75,0.00,,,0.00,Wunderground v.1.15,2013-05-17 04:09:00,
2013-05-17 00:10:00,57.1,49.2,29.79,North,5,0.0,0.0,75,0.00,,,0.00,Wunderground v.1.15,2013-05-17 04:10:00,
2013-05-17 00:15:00,57.0,49.5,29.80,North,5,0.0,0.0,76,0.00,,,0.00,Wunderground v.1.15,2013-05-17 04:15:00,
2013-05-17 00:21:00,56.8,49.3,29.80,North,5,0.0,0.0,76,0.00,,,0.00,Wunderground v.1.15,2013-05-17 04:21:00,
2013-05-17 00:26:00,56.7,49.6,29.80,North,5,0.0,0.0,77,0.00,,,0.00,Wunderground v.1.15,2013-05-17 04:26:00,
2013-05-17 00:31:00,56.7,49.9,29.80,North,5,0.0,0.0,78,0.00,,,0.00,Wunderground v.1.15,2013-05-17 04:31:00,
2013-05-17 00:37:00,56.5,49.7,29.80,North,5,0.0,0.0,78,0.00,,,0.00,Wunderground v.1.15,2013-05-17 04:37:00,
2013-05-17 00:43:00,56.4,49.6,29.81,North,5,0.0,0.0,78,0.00,,,0.00,Wunderground v.1.15,2013-05-17 04:43:00,
2013-05-17 00:48:00,56.3,49.9,29.81,North,5,0.0,0.0,79,0.00,,,0.00,Wunderground v.1.15,2013-05-17 04:48:00,
2013-05-17 00:53:00,56.2,49.8,29.81,North,5,0.0,0.0,79,0.00,,,0.00,Wunderground v.1.15,2013-05-17 04:53:00,
2013-05-17 00:58:00,56.1,50.0,29.82,North,5,0.0,0.0,80,0.00,,,0.00,Wunderground v.1.15,2013-05-17 04:58:00,
2013-05-17 01:04:00,56.0,49.9,29.82,North,5,0.0,0.0,80,0.00,,,0.00,Wunderground v.1.15,2013-05-17 05:04:00,
2013-05-17 01:09:00,55.8,49.7,29.82,North,5,0.0,0.0,80,0.00,,,0.00,Wunderground v.1.15,2013-05-17 05:09:00,
2013-05-17 01:14:00,55.7,50.0,29.82,North,5,0.0,0.0,81,0.00,,,0.00,Wunderground v.1.15,2013-05-17 05:14:00,
2013-05-17 01:20:00,55.6,49.5,29.82,North,5,0.0,0.0,80,0.00,,,0.00,Wunderground v.1.15,2013-05-17 05:20:00,
2013-05-17 01:25:00,55.5,49.4,29.82,North,5,0.0,0.0,80,0.00,,,0.00,Wunderground v.1.15,2013-05-17 05:25:00,
2013-05-17 01:30:00,55.4,49.7,29.82,North,5,0.0,0.0,81,0.00,,,0.00,Wunderground v.1.15,2013-05-17 05:30:00,
2013-05-17 01:36:00,55.2,48.8,29.82,North,5,0.0,0.0,79,0.00,,,0.00,Wunderground v.1.15,2013-05-17 05:36:00,
2013-05-17 01:41:00,55.0,48.9,29.82,North,5,0.0,0.0,80,0.00,,,0.00,Wunderground v.1.15,2013-05-17 05:41:00,
2013-05-17 01:46:00,54.8,48.1,29.82,North,5,0.0,0.0,78,0.00,,,0.00,Wunderground v.1.15,2013-05-17 05:46:00,
2013-05-17 01:51:00,54.7,48.3,29.82,North,5,0.0,0.0,79,0.00,,,0.00,Wunderground v.1.15,2013-05-17 05:51:00,
2013-05-17 01:56:00,54.5,48.1,29.82,North,5,0.0,0.0,79,0.00,,,0.00,Wunderground v.1.15,2013-05-17 05:56:00,
2013-05-17 02:01:00,54.4,47.7,29.82,North,5,0.0,0.0,78,0.00,,,0.00,Wunderground v.1.15,2013-05-17 06:01:00,
2013-05-17 02:06:00,54.2,47.8,29.82,North,5,0.0,0.0,79,0.00,,,0.00,Wunderground v.1.15,2013-05-17 06:06:00,
2013-05-17 02:11:00,54.1,48.1,29.83,North,5,0.0,0.0,80,0.00,,,0.00,Wunderground v.1.15,2013-05-17 06:11:00,
2013-05-17 02:16:00,54.0,48.0,29.83,North,5,0.0,0.0,80,0.00,,,0.00,Wunderground v.1.15,2013-05-17 06:16:00,
2013-05-17 02:21:00,53.9,47.9,29.83,North,5,0.0,0.0,80,0.00,,,0.00,Wunderground v.1.15,2013-05-17 06:21:00,
2013-05-17 02:26:00,53.8,48.1,29.83,North,5,0.0,0.0,81,0.00,,,0.00,Wunderground v.1.15,2013-05-17 06:26:00,
2013-05-17 02:31:00,53.7,48.0,29.83,North,5,0.0,0.0,81,0.00,,,0.00,Wunderground v.1.15,2013-05-17 06:31:00,
2013-05-17 02:36:00,53.7,48.0,29.83,North,5,0.0,0.0,81,0.00,,,0.00,Wunderground v.1.15,2013-05-17 06:36:00,
2013-05-17 02:41:00,53.6,47.9,29.84,North,5,0.0,0.0,81,0.00,,,0.00,Wunderground v.1.15,2013-05-17 06:41:00,
2013-05-17 02:46:00,53.5,47.5,29.84,North,5,0.0,0.0,80,0.00,,,0.00,Wunderground v.1.15,2013-05-17 06:46:00,
2013-05-17 02:51:00,53.4,47.7,29.84,North,5,0.0,0.0,81,0.00,,,0.00,Wunderground v.1.15,2013-05-17 06:51:00,
2013-05-17 02:56:00,53.3,47.3,29.84,North,5,0.0,0.0,80,0.00,,,0.00,Wunderground v.1.15,2013-05-17 06:56:00,
2013-05-17 03:01:00,53.2,47.2,29.84,North,5,0.0,0.0,80,0.00,,,0.00,Wunderground v.1.15,2013-05-17 07:01:00,
2013-05-17 03:06:00,53.1,46.8,29.84,North,5,0.0,0.0,79,0.00,,,0.00,Wunderground v.1.15,2013-05-17 07:06:00,
2013-05-17 03:11:00,52.9,46.2,29.84,North,5,0.0,0.0,78,0.00,,,0.00,Wunderground v.1.15,2013-05-17 07:11:00,
2013-05-17 03:16:00,52.8,46.5,29.85,North,5,0.0,0.0,79,0.00,,,0.00,Wunderground v.1.15,2013-05-17 07:16:00,
2013-05-17 03:21:00,52.7,46.0,29.85,North,5,0.0,0.0,78,0.00,,,0.00,Wunderground v.1.15,2013-05-17 07:21:00,
2013-05-17 03:26:00,52.5,46.2,29.85,North,5,0.0,0.0,79,0.00,,,0.00,Wunderground v.1.15,2013-05-17 07:26:00,
2013-05-17 03:31:00,52.3,46.0,29.85,North,5,0.0,0.0,79,0.00,,,0.00,Wunderground v.1.15,2013-05-17 07:31:00,
2013-05-17 03:36:00,52.2,45.9,29.86,North,5,0.0,0.0,79,0.00,,,0.00,Wunderground v.1.15,2013-05-17 07:36:00,
2013-05-17 03:41:00,52.0,45.7,29.86,North,5,0.0,0.0,79,0.00,,,0.00,Wunderground v.1.15,2013-05-17 07:41:00,
2013-05-17 03:46:00,51.9,45.9,29.86,North,5,1.0,1.0,80,0.00,,,0.00,Wunderground v.1.15,2013-05-17 07:46:00,
2013-05-17 03:51:00,51.7,45.4,29.87,North,5,0.0,0.0,79,0.00,,,0.00,Wunderground v.1.15,2013-05-17 07:51:00,
2013-05-17 03:56:00,51.6,46.0,29.87,North,5,0.0,0.0,81,0.00,,,0.00,Wunderground v.1.15,2013-05-17 07:56:00,
2013-05-17 04:01:00,51.5,45.5,29.87,North,5,0.0,0.0,80,0.00,,,0.00,Wunderground v.1.15,2013-05-17 08:01:00,
2013-05-17 04:06:00,51.3,45.3,29.87,North,5,0.0,0.0,80,0.00,,,0.00,Wunderground v.1.15,2013-05-17 08:06:00,
2013-05-17 04:11:00,51.2,45.2,29.87,North,5,0.0,0.0,80,0.00,,,0.00,Wunderground v.1.15,2013-05-17 08:11:00,
2013-05-17 04:16:00,51.1,45.5,29.87,North,5,0.0,0.0,81,0.00,,,0.00,Wunderground v.1.15,2013-05-17 08:16:00,
2013-05-17 04:21:00,51.0,45.4,29.87,North,5,0.0,0.0,81,0.00,,,0.00,Wunderground v.1.15,2013-05-17 08:21:00,
2013-05-17 04:26:00,50.8,45.2,29.88,North,5,0.0,0.0,81,0.00,,,0.00,Wunderground v.1.15,2013-05-17 08:26:00,
2013-05-17 04:31:00,50.8,45.2,29.89,North,5,0.0,0.0,81,0.00,,,0.00,Wunderground v.1.15,2013-05-17 08:31:00,
2013-05-17 04:36:00,50.7,45.1,29.89,North,5,0.0,0.0,81,0.00,,,0.00,Wunderground v.1.15,2013-05-17 08:36:00,
2013-05-17 04:41:00,50.7,45.1,29.89,North,5,0.0,0.0,81,0.00,,,0.00,Wunderground v.1.15,2013-05-17 08:41:00,
2013-05-17 04:46:00,50.7,45.4,29.89,North,5,0.0,0.0,82,0.00,,,0.00,Wunderground v.1.15,2013-05-17 08:46:00,
2013-05-17 04:51:00,50.7,45.4,29.90,North,5,0.0,0.0,82,0.00,,,0.00,Wunderground v.1.15,2013-05-17 08:51:00,
2013-05-17 04:56:00,50.7,44.8,29.90,NNE,15,0.0,0.0,80,0.00,,,0.00,Wunderground v.1.15,2013-05-17 08:56:00,
2013-05-17 05:01:00,50.7,44.8,29.90,NNE,15,0.0,0.0,80,0.00,,,0.00,Wunderground v.1.15,2013-05-17 09:01:00,
2013-05-17 05:06:00,50.8,45.2,29.91,NNE,15,0.0,0.0,81,0.00,,,0.00,Wunderground v.1.15,2013-05-17 09:06:00,
2013-05-17 05:11:00,50.8,45.2,29.92,NNE,15,0.0,0.0,81,0.00,,,0.00,Wunderground v.1.15,2013-05-17 09:11:00,
2013-05-17 05:16:00,50.8,45.2,29.92,NNE,15,0.0,0.0,81,0.00,,,0.00,Wunderground v.1.15,2013-05-17 09:16:00,
2013-05-17 05:21:00,50.7,44.8,29.92,NNE,15,0.0,0.0,80,0.00,,,0.00,Wunderground v.1.15,2013-05-17 09:21:00,
2013-05-17 05:26:00,50.6,44.7,29.92,NNE,15,0.0,0.0,80,0.00,,,0.00,Wunderground v.1.15,2013-05-17 09:26:00,
2013-05-17 05:31:00,50.5,44.6,29.92,NNE,15,0.0,0.0,80,0.00,,,0.00,Wunderground v.1.15,2013-05-17 09:31:00,
2013-05-17 05:37:00,50.4,44.5,29.93,NNE,15,0.0,0.0,80,0.00,,,0.00,Wunderground v.1.15,2013-05-17 09:37:00,
2013-05-17 05:42:00,50.2,44.3,29.93,NNE,15,0.0,0.0,80,0.00,,,0.00,Wunderground v.1.15,2013-05-17 09:42:00,
2013-05-17 05:47:00,50.0,44.1,29.93,NNE,15,0.0,0.0,80,0.00,,,0.00,Wunderground v.1.15,2013-05-17 09:47:00,
2013-05-17 05:52:00,49.8,43.9,29.93,NNE,15,0.0,0.0,80,0.00,,,0.00,Wunderground v.1.15,2013-05-17 09:52:00,
2013-05-17 05:57:00,49.6,44.0,29.93,NNE,15,0.0,0.0,81,0.00,,,0.00,Wunderground v.1.15,2013-05-17 09:57:00,
2013-05-17 06:02:00,49.5,43.9,29.93,NNE,14,0.0,0.0,81,0.00,,,0.00,Wunderground v.1.15,2013-05-17 10:02:00,
2013-05-17 06:07:00,49.5,43.9,29.94,NNE,19,0.0,0.0,81,0.00,,,0.00,Wunderground v.1.15,2013-05-17 10:07:00,
2013-05-17 06:12:00,49.4,44.1,29.94,NNE,19,0.0,0.0,82,0.00,,,0.00,Wunderground v.1.15,2013-05-17 10:12:00,
2013-05-17 06:17:00,49.4,43.8,29.94,NNE,19,0.0,0.0,81,0.00,,,0.00,Wunderground v.1.15,2013-05-17 10:17:00,
2013-05-17 06:22:00,49.4,44.1,29.95,NNE,19,0.0,0.0,82,0.00,,,0.00,Wunderground v.1.15,2013-05-17 10:22:00,
2013-05-17 06:27:00,49.4,44.5,29.94,NNE,19,0.0,0.0,83,0.00,,,0.00,Wunderground v.1.15,2013-05-17 10:27:00,
2013-05-17 06:32:00,49.5,44.9,29.95,NNE,19,0.0,0.0,84,0.00,,,0.00,Wunderground v.1.15,2013-05-17 10:32:00,
2013-05-17 06:37:00,49.6,45.3,29.95,NNE,19,0.0,0.0,85,0.00,,,0.00,Wunderground v.1.15,2013-05-17 10:37:00,
2013-05-17 06:42:00,49.7,45.1,29.95,NNE,19,0.0,0.0,84,0.00,,,0.00,Wunderground v.1.15,2013-05-17 10:42:00,
2013-05-17 06:47:00,49.9,45.3,29.95,NNE,19,0.0,0.0,84,0.00,,,0.00,Wunderground v.1.15,2013-05-17 10:47:00,
2013-05-17 06:52:00,50.0,45.4,29.95,NNE,19,0.0,0.0,84,0.00,,,0.00,Wunderground v.1.15,2013-05-17 10:52:00,
2013-05-17 06:57:00,50.2,45.9,29.96,NNE,19,0.0,0.0,85,0.00,,,0.00,Wunderground v.1.15,2013-05-17 10:57:00,
2013-05-17 07:02:00,50.4,46.1,29.96,NNE,18,0.0,1.0,85,0.00,,,0.00,Wunderground v.1.15,2013-05-17 11:02:00,
2013-05-17 07:07:00,50.6,46.3,29.96,NNE,18,0.0,1.0,85,0.00,,,0.00,Wunderground v.1.15,2013-05-17 11:07:00,
2013-05-17 07:12:00,50.9,46.6,29.96,NNE,18,0.0,0.0,85,0.00,,,0.00,Wunderground v.1.15,2013-05-17 11:12:00,
2013-05-17 07:17:00,51.2,47.2,29.97,NNE,18,0.0,0.0,86,0.00,,,0.00,Wunderground v.1.15,2013-05-17 11:17:00,
2013-05-17 07:22:00,51.5,47.1,29.96,NNE,18,0.0,0.0,85,0.00,,,0.00,Wunderground v.1.15,2013-05-17 11:22:00,
2013-05-17 07:27:00,51.9,47.8,29.97,NNE,18,0.0,0.0,86,0.00,,,0.00,Wunderground v.1.15,2013-05-17 11:27:00,
2013-05-17 07:32:00,52.5,48.1,29.97,NNE,18,0.0,0.0,85,0.00,,,0.00,Wunderground v.1.15,2013-05-17 11:32:00,
2013-05-17 07:37:00,52.9,48.8,29.97,NNE,18,0.0,1.0,86,0.00,,,0.00,Wunderground v.1.15,2013-05-17 11:37:00,
2013-05-17 07:42:00,53.5,49.1,29.97,SW,216,1.0,3.0,85,0.00,,,0.00,Wunderground v.1.15,2013-05-17 11:42:00,
2013-05-17 07:47:00,54.1,49.1,29.97,North,5,0.0,3.0,83,0.00,,,0.00,Wunderground v.1.15,2013-05-17 11:47:00,
2013-05-17 07:52:00,54.9,48.8,29.97,North,5,0.0,2.0,80,0.00,,,0.00,Wunderground v.1.15,2013-05-17 11:52:00,
2013-05-17 07:57:00,55.6,48.2,29.97,North,9,0.0,2.0,76,0.00,,,0.00,Wunderground v.1.15,2013-05-17 11:57:00,
2013-05-17 08:02:00,56.4,48.6,29.97,North,355,0.0,1.0,75,0.00,,,0.00,Wunderground v.1.15,2013-05-17 12:02:00,
2013-05-17 08:07:00,57.3,48.7,29.97,NNW,343,0.0,2.0,73,0.00,,,0.00,Wunderground v.1.15,2013-05-17 12:07:00,
2013-05-17 08:12:00,57.9,47.8,29.97,ESE,110,1.0,3.0,69,0.00,,,0.00,Wunderground v.1.15,2013-05-17 12:12:00,
2013-05-17 08:17:00,58.5,47.2,29.98,NNE,28,5.0,6.0,66,0.00,,,0.00,Wunderground v.1.15,2013-05-17 12:17:00,
2013-05-17 08:22:00,59.0,47.7,29.98,NW,325,0.0,2.0,66,0.00,,,0.00,Wunderground v.1.15,2013-05-17 12:22:00,
2013-05-17 08:27:00,59.5,46.9,29.98,NNE,19,4.0,7.0,63,0.00,,,0.00,Wunderground v.1.15,2013-05-17 12:27:00,
2013-05-17 08:32:00,59.7,46.2,29.98,NW,309,0.0,5.0,61,0.00,,,0.00,Wunderground v.1.15,2013-05-17 12:32:00,
2013-05-17 08:37:00,59.9,46.0,29.98,NNW,342,3.0,5.0,60,0.00,,,0.00,Wunderground v.1.15,2013-05-17 12:37:00,
2013-05-17 08:42:00,60.0,46.5,29.99,North,355,1.0,2.0,61,0.00,,,0.00,Wunderground v.1.15,2013-05-17 12:42:00,
2013-05-17 08:47:00,60.3,47.2,29.99,NNW,331,0.0,3.0,62,0.00,,,0.00,Wunderground v.1.15,2013-05-17 12:47:00,
2013-05-17 08:52:00,60.6,47.1,29.99,SE,130,0.0,1.0,61,0.00,,,0.00,Wunderground v.1.15,2013-05-17 12:52:00,
2013-05-17 08:57:00,61.1,48.0,30.00,ENE,74,0.0,4.0,62,0.00,,,0.00,Wunderground v.1.15,2013-05-17 12:57:00,
2013-05-17 09:02:00,61.3,46.4,30.00,North,350,1.0,4.0,58,0.00,,,0.00,Wunderground v.1.15,2013-05-17 13:02:00,
2013-05-17 09:07:00,61.5,46.6,29.99,NE,36,2.0,4.0,58,0.00,,,0.00,Wunderground v.1.15,2013-05-17 13:07:00,
2013-05-17 09:12:00,61.8,46.4,29.99,NW,306,2.0,6.0,57,0.00,,,0.00,Wunderground v.1.15,2013-05-17 13:12:00,
2013-05-17 09:17:00,62.0,46.6,29.99,NW,315,1.0,6.0,57,0.00,,,0.00,Wunderground v.1.15,2013-05-17 13:17:00,
2013-05-17 09:22:00,62.4,46.5,29.99,WNW,287,4.0,4.0,56,0.00,,,0.00,Wunderground v.1.15,2013-05-17 13:22:00,
2013-05-17 09:27:00,62.5,46.1,29.99,NE,51,3.0,7.0,55,0.00,,,0.00,Wunderground v.1.15,2013-05-17 13:27:00,
2013-05-17 09:32:00,62.2,46.8,29.99,North,350,0.0,5.0,57,0.00,,,0.00,Wunderground v.1.15,2013-05-17 13:32:00,
2013-05-17 09:37:00,62.1,47.1,29.99,West,274,1.0,5.0,58,0.00,,,0.00,Wunderground v.1.15,2013-05-17 13:37:00,
2013-05-17 09:43:00,62.0,46.6,30.00,WNW,292,2.0,2.0,57,0.00,,,0.00,Wunderground v.1.15,2013-05-17 13:43:00,
2013-05-17 09:48:00,62.0,46.1,30.00,WNW,295,0.0,5.0,56,0.00,,,0.00,Wunderground v.1.15,2013-05-17 13:48:00,
2013-05-17 09:53:00,61.9,46.0,30.00,West,267,0.0,4.0,56,0.00,,,0.00,Wunderground v.1.15,2013-05-17 13:53:00,
2013-05-17 09:58:00,61.6,44.8,30.00,NW,309,3.0,4.0,54,0.00,,,0.00,Wunderground v.1.15,2013-05-17 13:58:00,
2013-05-17 10:03:00,61.4,45.6,30.00,NE,37,1.0,3.0,56,0.00,,,0.00,Wunderground v.1.15,2013-05-17 14:03:00,
2013-05-17 10:08:00,61.3,45.0,30.01,North,9,0.0,6.0,55,0.00,,,0.00,Wunderground v.1.15,2013-05-17 14:08:00,
2013-05-17 10:13:00,61.3,45.9,30.01,SSW,207,1.0,4.0,57,0.00,,,0.00,Wunderground v.1.15,2013-05-17 14:13:00,
2013-05-17 10:18:00,61.5,46.1,30.01,WNW,285,1.0,4.0,57,0.00,,,0.00,Wunderground v.1.15,2013-05-17 14:18:00,
2013-05-17 10:23:00,61.6,46.2,30.01,NW,319,2.0,4.0,57,0.00,,,0.00,Wunderground v.1.15,2013-05-17 14:23:00,
2013-05-17 10:28:00,61.9,45.5,30.01,NNE,32,0.0,6.0,55,0.00,,,0.00,Wunderground v.1.15,2013-05-17 14:28:00,
2013-05-17 10:33:00,62.1,46.2,30.01,NE,40,0.0,1.0,56,0.00,,,0.00,Wunderground v.1.15,2013-05-17 14:33:00,
2013-05-17 10:38:00,62.4,46.5,30.01,NNE,19,2.0,4.0,56,0.00,,,0.00,Wunderground v.1.15,2013-05-17 14:38:00,
2013-05-17 10:43:00,62.7,45.8,30.01,WNW,302,0.0,3.0,54,0.00,,,0.00,Wunderground v.1.15,2013-05-17 14:43:00,
2013-05-17 10:48:00,63.0,46.1,30.01,NNW,328,2.0,4.0,54,0.00,,,0.00,Wunderground v.1.15,2013-05-17 14:48:00,
2013-05-17 10:53:00,63.5,47.0,30.01,WSW,256,1.0,2.0,55,0.00,,,0.00,Wunderground v.1.15,2013-05-17 14:53:00,
2013-05-17 10:58:00,63.6,45.6,30.01,NNW,346,2.0,5.0,52,0.00,,,0.00,Wunderground v.1.15,2013-05-17 14:58:00,
2013-05-17 11:03:00,63.8,47.3,30.01,WNW,289,0.0,5.0,55,0.00,,,0.00,Wunderground v.1.15,2013-05-17 15:03:00,
2013-05-17 11:08:00,64.3,46.8,30.02,North,355,0.0,5.0,53,0.00,,,0.00,Wunderground v.1.15,2013-05-17 15:08:00,
2013-05-17 11:13:00,64.5,46.5,30.02,East,98,1.0,3.0,52,0.00,,,0.00,Wunderground v.1.15,2013-05-17 15:13:00,
2013-05-17 11:18:00,64.4,45.9,30.02,North,355,0.0,5.0,51,0.00,,,0.00,Wunderground v.1.15,2013-05-17 15:18:00,
2013-05-17 11:23:00,64.6,49.0,30.02,NNW,331,0.0,6.0,57,0.00,,,0.00,Wunderground v.1.15,2013-05-17 15:23:00,
2013-05-17 11:28:00,64.6,47.1,30.02,South,179,1.0,6.0,53,0.00,,,0.00,Wunderground v.1.15,2013-05-17 15:28:00,
2013-05-17 11:33:00,64.7,46.7,30.02,NNW,332,2.0,6.0,52,0.00,,,0.00,Wunderground v.1.15,2013-05-17 15:33:00,
2013-05-17 11:38:00,64.9,46.8,30.01,NE,38,2.0,6.0,52,0.00,,,0.00,Wunderground v.1.15,2013-05-17 15:38:00,
2013-05-17 11:43:00,65.1,45.5,30.02,NW,307,1.0,5.0,49,0.00,,,0.00,Wunderground v.1.15,2013-05-17 15:43:00,
2013-05-17 11:48:00,65.0,46.4,30.01,South,169,0.0,5.0,51,0.00,,,0.00,Wunderground v.1.15,2013-05-17 15:48:00,
2013-05-17 11:53:00,65.4,46.8,30.02,West,281,0.0,4.0,51,0.00,,,0.00,Wunderground v.1.15,2013-05-17 15:53:00,
2013-05-17 11:58:00,65.7,46.5,30.02,NW,317,1.0,4.0,50,0.00,,,0.00,Wunderground v.1.15,2013-05-17 15:58:00,
2013-05-17 12:03:00,65.8,46.1,30.02,NNE,17,5.0,5.0,49,0.00,,,0.00,Wunderground v.1.15,2013-05-17 16:03:00,
2013-05-17 12:08:00,66.2,48.0,30.01,NNE,19,3.0,5.0,52,0.00,,,0.00,Wunderground v.1.15,2013-05-17 16:08:00,
2013-05-17 12:13:00,66.7,45.8,30.01,NE,40,2.0,7.0,47,0.00,,,0.00,Wunderground v.1.15,2013-05-17 16:13:00,
2013-05-17 12:18:00,66.9,46.6,30.01,NE,42,5.0,7.0,48,0.00,,,0.00,Wunderground v.1.15,2013-05-17 16:18:00,
2013-05-17 12:23:00,67.0,44.9,30.01,NNE,16,3.0,7.0,45,0.00,,,0.00,Wunderground v.1.15,2013-05-17 16:23:00,
2013-05-17 12:28:00,67.4,46.5,30.01,NNE,14,0.0,8.0,47,0.00,,,0.00,Wunderground v.1.15,2013-05-17 16:28:00,
2013-05-17 12:33:00,67.7,46.7,30.01,SE,126,1.0,7.0,47,0.00,,,0.00,Wunderground v.1.15,2013-05-17 16:33:00,
2013-05-17 12:38:00,67.9,46.9,30.01,East,80,0.0,7.0,47,0.00,,,0.00,Wunderground v.1.15,2013-05-17 16:38:00,
2013-05-17 12:43:00,67.9,47.5,30.01,West,279,1.0,2.0,48,0.00,,,0.00,Wunderground v.1.15,2013-05-17 16:43:00,
2013-05-17 12:48:00,68.1,47.1,30.01,NW,312,1.0,5.0,47,0.00,,,0.00,Wunderground v.1.15,2013-05-17 16:48:00,
2013-05-17 12:53:00,68.5,47.5,30.01,NE,34,0.0,3.0,47,0.00,,,0.00,Wunderground v.1.15,2013-05-17 16:53:00,
2013-05-17 12:58:00,68.8,47.2,30.02,NNE,17,1.0,6.0,46,0.00,,,0.00,Wunderground v.1.15,2013-05-17 16:58:00,
2013-05-17 13:03:00,69.2,46.9,30.02,NNE,24,1.0,6.0,45,0.00,,,0.00,Wunderground v.1.15,2013-05-17 17:03:00,
2013-05-17 13:08:00,69.5,47.8,30.02,NNE,29,0.0,6.0,46,0.00,,,0.00,Wunderground v.1.15,2013-05-17 17:08:00,
2013-05-17 13:13:00,69.6,46.7,30.02,NE,55,0.0,2.0,44,0.00,,,0.00,Wunderground v.1.15,2013-05-17 17:13:00,
2013-05-17 13:18:00,69.6,46.1,30.02,North,355,0.0,7.0,43,0.00,,,0.00,Wunderground v.1.15,2013-05-17 17:18:00,
2013-05-17 13:23:00,69.4,45.9,30.02,NW,315,3.0,5.0,43,0.00,,,0.00,Wunderground v.1.15,2013-05-17 17:23:00,
2013-05-17 13:28:00,68.7,44.7,30.02,North,360,0.0,6.0,42,0.00,,,0.00,Wunderground v.1.15,2013-05-17 17:28:00,
2013-05-17 13:33:00,68.4,47.4,30.02,ENE,68,0.0,3.0,47,0.00,,,0.00,Wunderground v.1.15,2013-05-17 17:33:00,
2013-05-17 13:38:00,68.4,46.2,30.02,SW,225,0.0,4.0,45,0.00,,,0.00,Wunderground v.1.15,2013-05-17 17:38:00,
2013-05-17 13:43:00,68.6,45.8,30.02,NW,315,2.0,5.0,44,0.00,,,0.00,Wunderground v.1.15,2013-05-17 17:43:00,
2013-05-17 13:48:00,68.6,45.2,30.03,East,84,0.0,5.0,43,0.00,,,0.00,Wunderground v.1.15,2013-05-17 17:48:00,
2013-05-17 13:53:00,68.4,45.0,30.02,North,360,1.0,5.0,43,0.00,,,0.00,Wunderground v.1.15,2013-05-17 17:53:00,
2013-05-17 13:58:00,68.4,45.6,30.03,ESE,105,0.0,5.0,44,0.00,,,0.00,Wunderground v.1.15,2013-05-17 17:58:00,
2013-05-17 14:03:00,68.6,45.2,30.03,NE,53,4.0,6.0,43,0.00,,,0.00,Wunderground v.1.15,2013-05-17 18:03:00,
2013-05-17 14:08:00,68.9,44.9,30.03,NNE,26,2.0,11.0,42,0.00,,,0.00,Wunderground v.1.15,2013-05-17 18:08:00,
2013-05-17 14:13:00,69.1,45.7,30.03,North,10,3.0,3.0,43,0.00,,,0.00,Wunderground v.1.15,2013-05-17 18:13:00,
2013-05-17 14:18:00,69.4,44.7,30.03,WSW,238,1.0,4.0,41,0.00,,,0.00,Wunderground v.1.15,2013-05-17 18:18:00,
2013-05-17 14:23:00,69.4,45.3,30.03,East,89,0.0,4.0,42,0.00,,,0.00,Wunderground v.1.15,2013-05-17 18:23:00,
2013-05-17 14:29:00,69.9,44.5,30.03,NW,308,1.0,6.0,40,0.00,,,0.00,Wunderground v.1.15,2013-05-17 18:29:00,
2013-05-17 14:34:00,70.1,44.0,30.03,NW,317,0.0,10.0,39,0.00,,,0.00,Wunderground v.1.15,2013-05-17 18:34:00,
2013-05-17 14:39:00,70.1,44.6,30.03,NNE,17,1.0,10.0,40,0.00,,,0.00,Wunderground v.1.15,2013-05-17 18:39:00,
2013-05-17 14:44:00,69.9,44.5,30.03,NE,55,0.0,4.0,40,0.00,,,0.00,Wunderground v.1.15,2013-05-17 18:44:00,
2013-05-17 14:49:00,69.9,44.5,30.03,SW,236,1.0,4.0,40,0.00,,,0.00,Wunderground v.1.15,2013-05-17 18:49:00,
2013-05-17 14:54:00,69.9,45.1,30.03,NW,308,2.0,7.0,41,0.00,,,0.00,Wunderground v.1.15,2013-05-17 18:54:00,
2013-05-17 14:59:00,70.0,45.8,30.03,NNW,332,0.0,7.0,42,0.00,,,0.00,Wunderground v.1.15,2013-05-17 18:59:00,
2013-05-17 15:04:00,70.1,44.6,30.03,NNE,31,0.0,3.0,40,0.00,,,0.00,Wunderground v.1.15,2013-05-17 19:04:00,
2013-05-17 15:09:00,70.1,44.6,30.03,NW,306,1.0,4.0,40,0.00,,,0.00,Wunderground v.1.15,2013-05-17 19:09:00,
2013-05-17 15:14:00,70.0,44.6,30.03,SW,232,6.0,6.0,40,0.00,,,0.00,Wunderground v.1.15,2013-05-17 19:14:00,
2013-05-17 15:19:00,70.1,45.9,30.02,West,270,0.0,6.0,42,0.00,,,0.00,Wunderground v.1.15,2013-05-17 19:19:00,
2013-05-17 15:24:00,70.2,44.1,30.02,NNW,342,1.0,3.0,39,0.00,,,0.00,Wunderground v.1.15,2013-05-17 19:24:00,
2013-05-17 15:29:00,70.2,44.1,30.03,NNW,338,2.0,8.0,39,0.00,,,0.00,Wunderground v.1.15,2013-05-17 19:29:00,
2013-05-17 15:34:00,70.2,44.7,30.03,NNE,32,0.0,5.0,40,0.00,,,0.00,Wunderground v.1.15,2013-05-17 19:34:00,
2013-05-17 15:39:00,70.2,45.4,30.03,NNE,32,4.0,5.0,41,0.00,,,0.00,Wunderground v.1.15,2013-05-17 19:39:00,
2013-05-17 15:44:00,70.3,45.5,30.03,NE,47,0.0,6.0,41,0.00,,,0.00,Wunderground v.1.15,2013-05-17 19:44:00,
2013-05-17 15:49:00,70.4,44.9,30.02,NE,47,1.0,6.0,40,0.00,,,0.00,Wunderground v.1.15,2013-05-17 19:49:00,
2013-05-17 15:54:00,70.5,44.3,30.03,NW,321,0.0,7.0,39,0.00,,,0.00,Wunderground v.1.15,2013-05-17 19:54:00,
2013-05-17 15:59:00,70.6,44.4,30.03,North,5,0.0,7.0,39,0.00,,,0.00,Wunderground v.1.15,2013-05-17 19:59:00,
2013-05-17 16:04:00,70.5,45.0,30.03,SSW,213,0.0,3.0,40,0.00,,,0.00,Wunderground v.1.15,2013-05-17 20:04:00,
2013-05-17 16:09:00,70.7,45.2,30.03,SW,235,1.0,5.0,40,0.00,,,0.00,Wunderground v.1.15,2013-05-17 20:09:00,
2013-05-17 16:14:00,70.8,45.3,30.02,South,186,0.0,1.0,40,0.00,,,0.00,Wunderground v.1.15,2013-05-17 20:14:00,
2013-05-17 16:19:00,71.0,44.8,30.03,SSW,202,6.0,8.0,39,0.00,,,0.00,Wunderground v.1.15,2013-05-17 20:19:00,
2013-05-17 16:24:00,70.9,44.0,30.03,SSE,159,2.0,5.0,38,0.00,,,0.00,Wunderground v.1.15,2013-05-17 20:24:00,
2013-05-17 16:29:00,70.8,43.9,30.03,SSW,213,1.0,5.0,38,0.00,,,0.00,Wunderground v.1.15,2013-05-17 20:29:00,
2013-05-17 16:34:00,70.5,45.7,30.03,WNW,291,0.0,7.0,41,0.00,,,0.00,Wunderground v.1.15,2013-05-17 20:34:00,
2013-05-17 16:39:00,70.0,46.5,30.04,NW,321,0.0,7.0,43,0.00,,,0.00,Wunderground v.1.15,2013-05-17 20:39:00,
2013-05-17 16:44:00,69.4,46.5,30.04,NNW,327,1.0,3.0,44,0.00,,,0.00,Wunderground v.1.15,2013-05-17 20:44:00,
2013-05-17 16:49:00,69.0,46.2,30.04,NNE,23,0.0,4.0,44,0.00,,,0.00,Wunderground v.1.15,2013-05-17 20:49:00,
2013-05-17 16:54:00,68.6,47.0,30.04,NW,325,0.0,3.0,46,0.00,,,0.00,Wunderground v.1.15,2013-05-17 20:54:00,
2013-05-17 16:59:00,68.5,47.5,30.04,NNE,22,1.0,4.0,47,0.00,,,0.00,Wunderground v.1.15,2013-05-17 20:59:00,
2013-05-17 17:04:00,68.4,46.8,30.04,SE,128,2.0,3.0,46,0.00,,,0.00,Wunderground v.1.15,2013-05-17 21:04:00,
2013-05-17 17:09:00,68.3,46.7,30.04,South,189,0.0,6.0,46,0.00,,,0.00,Wunderground v.1.15,2013-05-17 21:09:00,
2013-05-17 17:14:00,68.4,47.4,30.05,ENE,65,0.0,4.0,47,0.00,,,0.00,Wunderground v.1.15,2013-05-17 21:14:00,
2013-05-17 17:19:00,68.5,47.5,30.05,NNW,343,0.0,4.0,47,0.00,,,0.00,Wunderground v.1.15,2013-05-17 21:19:00,
2013-05-17 17:24:00,68.5,48.0,30.05,WSW,244,0.0,3.0,48,0.00,,,0.00,Wunderground v.1.15,2013-05-17 21:24:00,
2013-05-17 17:29:00,68.6,48.7,30.05,SW,233,0.0,3.0,49,0.00,,,0.00,Wunderground v.1.15,2013-05-17 21:29:00,
2013-05-17 17:34:00,68.7,48.2,30.05,SW,229,0.0,5.0,48,0.00,,,0.00,Wunderground v.1.15,2013-05-17 21:34:00,
2013-05-17 17:39:00,68.8,49.9,30.05,WSW,256,0.0,5.0,51,0.00,,,0.00,Wunderground v.1.15,2013-05-17 21:39:00,
2013-05-17 17:44:00,68.9,46.1,30.06,SW,222,0.0,4.0,44,0.00,,,0.00,Wunderground v.1.15,2013-05-17 21:44:00,
2013-05-17 17:50:00,69.0,45.6,30.06,SSW,206,1.0,1.0,43,0.00,,,0.00,Wunderground v.1.15,2013-05-17 21:50:00,
2013-05-17 17:55:00,69.1,47.4,30.06,NNW,347,0.0,5.0,46,0.00,,,0.00,Wunderground v.1.15,2013-05-17 21:55:00,
2013-05-17 18:00:00,69.2,45.1,30.06,NNW,329,3.0,4.0,42,0.00,,,0.00,Wunderground v.1.15,2013-05-17 22:00:00,
2013-05-17 18:05:00,69.4,45.9,30.06,North,349,2.0,5.0,43,0.00,,,0.00,Wunderground v.1.15,2013-05-17 22:05:00,
2013-05-17 18:10:00,69.4,46.5,30.06,NE,37,1.0,2.0,44,0.00,,,0.00,Wunderground v.1.15,2013-05-17 22:10:00,
2013-05-17 18:15:00,69.2,45.1,30.07,NE,37,0.0,2.0,42,0.00,,,0.00,Wunderground v.1.15,2013-05-17 22:15:00,
2013-05-17 18:20:00,69.0,44.3,30.07,SSE,152,0.0,0.0,41,0.00,,,0.00,Wunderground v.1.15,2013-05-17 22:20:00,
2013-05-17 18:25:00,68.8,45.4,30.07,SSE,152,0.0,0.0,43,0.00,,,0.00,Wunderground v.1.15,2013-05-17 22:25:00,
2013-05-17 18:30:00,68.6,47.0,30.07,SSW,202,0.0,0.0,46,0.00,,,0.00,Wunderground v.1.15,2013-05-17 22:30:00,
2013-05-17 18:35:00,68.3,44.9,30.07,North,355,0.0,2.0,43,0.00,,,0.00,Wunderground v.1.15,2013-05-17 22:35:00,
2013-05-17 18:40:00,68.1,44.1,30.07,North,355,0.0,0.0,42,0.00,,,0.00,Wunderground v.1.15,2013-05-17 22:40:00,
2013-05-17 18:45:00,67.9,47.5,30.07,North,5,0.0,1.0,48,0.00,,,0.00,Wunderground v.1.15,2013-05-17 22:45:00,
2013-05-17 18:50:00,67.7,46.2,30.08,North,5,0.0,0.0,46,0.00,,,0.00,Wunderground v.1.15,2013-05-17 22:50:00,
2013-05-17 18:55:00,67.5,46.0,30.08,North,5,0.0,0.0,46,0.00,,,0.00,Wunderground v.1.15,2013-05-17 22:55:00,
2013-05-17 19:00:00,67.2,45.7,30.08,North,5,0.0,0.0,46,0.00,,,0.00,Wunderground v.1.15,2013-05-17 23:00:00,
2013-05-17 19:05:00,67.0,45.5,30.08,North,5,0.0,0.0,46,0.00,,,0.00,Wunderground v.1.15,2013-05-17 23:05:00,
2013-05-17 19:10:00,66.8,48.6,30.09,North,5,0.0,0.0,52,0.00,,,0.00,Wunderground v.1.15,2013-05-17 23:10:00,
2013-05-17 19:15:00,66.5,48.8,30.09,North,5,0.0,0.0,53,0.00,,,0.00,Wunderground v.1.15,2013-05-17 23:15:00,
2013-05-17 19:20:00,66.2,48.0,30.09,North,5,0.0,0.0,52,0.00,,,0.00,Wunderground v.1.15,2013-05-17 23:20:00,
2013-05-17 19:25:00,65.9,48.8,30.09,North,5,0.0,0.0,54,0.00,,,0.00,Wunderground v.1.15,2013-05-17 23:25:00,
2013-05-17 19:30:00,65.8,49.7,30.09,North,5,0.0,0.0,56,0.00,,,0.00,Wunderground v.1.15,2013-05-17 23:30:00,
2013-05-17 19:35:00,65.5,48.4,30.09,North,5,0.0,0.0,54,0.00,,,0.00,Wunderground v.1.15,2013-05-17 23:35:00,
2013-05-17 19:40:00,65.2,48.6,30.09,North,5,0.0,0.0,55,0.00,,,0.00,Wunderground v.1.15,2013-05-17 23:40:00,
2013-05-17 19:45:00,64.9,48.3,30.09,North,5,0.0,0.0,55,0.00,,,0.00,Wunderground v.1.15,2013-05-17 23:45:00,
2013-05-17 19:50:00,64.6,48.5,30.10,North,5,0.0,0.0,56,0.00,,,0.00,Wunderground v.1.15,2013-05-17 23:50:00,
2013-05-17 19:55:00,64.3,49.2,30.10,North,5,0.0,0.0,58,0.00,,,0.00,Wunderground v.1.15,2013-05-17 23:55:00,
2013-05-17 20:00:00,63.9,49.3,30.10,North,5,0.0,0.0,59,0.00,,,0.00,Wunderground v.1.15,2013-05-18 00:00:00,
2013-05-17 20:05:00,63.4,49.7,30.11,North,5,0.0,0.0,61,0.00,,,0.00,Wunderground v.1.15,2013-05-18 00:05:00,
2013-05-17 20:10:00,62.8,49.6,30.11,North,5,0.0,0.0,62,0.00,,,0.00,Wunderground v.1.15,2013-05-18 00:10:00,
2013-05-17 20:15:00,62.3,50.0,30.11,North,5,0.0,0.0,64,0.00,,,0.00,Wunderground v.1.15,2013-05-18 00:15:00,
2013-05-17 20:20:00,61.8,49.5,30.11,North,5,0.0,0.0,64,0.00,,,0.00,Wunderground v.1.15,2013-05-18 00:20:00,
2013-05-17 20:25:00,61.2,49.3,30.11,North,5,0.0,0.0,65,0.00,,,0.00,Wunderground v.1.15,2013-05-18 00:25:00,
2013-05-17 20:30:00,60.8,49.4,30.12,North,5,0.0,0.0,66,0.00,,,0.00,Wunderground v.1.15,2013-05-18 00:30:00,
2013-05-17 20:35:00,60.3,49.3,30.12,North,5,0.0,0.0,67,0.00,,,0.00,Wunderground v.1.15,2013-05-18 00:35:00,
2013-05-17 20:40:00,59.8,49.2,30.13,East,98,4.0,4.0,68,0.00,,,0.00,Wunderground v.1.15,2013-05-18 00:40:00,
2013-05-17 20:45:00,59.2,49.4,30.14,East,98,0.0,4.0,70,0.00,,,0.00,Wunderground v.1.15,2013-05-18 00:45:00,
2013-05-17 20:50:00,58.9,49.1,30.14,East,90,0.0,2.0,70,0.00,,,0.00,Wunderground v.1.15,2013-05-18 00:50:00,
2013-05-17 20:55:00,58.9,48.7,30.14,East,98,4.0,4.0,69,0.00,,,0.00,Wunderground v.1.15,2013-05-18 00:55:00,
2013-05-17 21:00:00,59.0,48.8,30.15,East,98,2.0,2.0,69,0.00,,,0.00,Wunderground v.1.15,2013-05-18 01:00:00,
2013-05-17 21:05:00,59.0,49.2,30.16,East,82,2.0,4.0,70,0.00,,,0.00,Wunderground v.1.15,2013-05-18 01:05:00,
2013-05-17 21:10:00,58.9,49.5,30.16,ESE,107,1.0,3.0,71,0.00,,,0.00,Wunderground v.1.15,2013-05-18 01:10:00,
2013-05-17 21:15:00,58.7,49.7,30.16,East,84,2.0,4.0,72,0.00,,,0.00,Wunderground v.1.15,2013-05-18 01:15:00,
2013-05-17 21:20:00,58.4,49.8,30.17,ESE,104,0.0,2.0,73,0.00,,,0.00,Wunderground v.1.15,2013-05-18 01:20:00,
2013-05-17 21:25:00,58.1,49.9,30.17,ESE,104,0.0,4.0,74,0.00,,,0.00,Wunderground v.1.15,2013-05-18 01:25:00,
2013-05-17 21:30:00,57.8,49.9,30.17,SE,145,0.0,1.0,75,0.00,,,0.00,Wunderground v.1.15,2013-05-18 01:30:00,
2013-05-17 21:35:00,57.5,49.6,30.18,SE,145,0.0,1.0,75,0.00,,,0.00,Wunderground v.1.15,2013-05-18 01:35:00,
2013-05-17 21:40:00,57.3,49.8,30.18,SE,145,0.0,0.0,76,0.00,,,0.00,Wunderground v.1.15,2013-05-18 01:40:00,
2013-05-17 21:45:00,57.1,50.0,30.18,SE,145,0.0,1.0,77,0.00,,,0.00,Wunderground v.1.15,2013-05-18 01:45:00,
2013-05-17 21:50:00,56.8,50.0,30.19,SE,145,0.0,0.0,78,0.00,,,0.00,Wunderground v.1.15,2013-05-18 01:50:00,
2013-05-17 21:55:00,56.6,49.8,30.19,SE,145,0.0,0.0,78,0.00,,,0.00,Wunderground v.1.15,2013-05-18 01:55:00,
2013-05-17 22:01:00,56.3,49.9,30.18,SE,145,0.0,0.0,79,0.00,,,0.00,Wunderground v.1.15,2013-05-18 02:01:00,
2013-05-17 22:06:00,56.2,49.8,30.19,SE,145,0.0,0.0,79,0.00,,,0.00,Wunderground v.1.15,2013-05-18 02:06:00,
2013-05-17 22:11:00,55.9,49.8,30.19,SE,145,0.0,0.0,80,0.00,,,0.00,Wunderground v.1.15,2013-05-18 02:11:00,
2013-05-17 22:16:00,55.7,50.0,30.19,SE,145,0.0,0.0,81,0.00,,,0.00,Wunderground v.1.15,2013-05-18 02:16:00,
2013-05-17 22:21:00,55.6,50.2,30.19,SE,145,0.0,0.0,82,0.00,,,0.00,Wunderground v.1.15,2013-05-18 02:21:00,
2013-05-17 22:26:00,55.4,50.0,30.19,SE,145,0.0,0.0,82,0.00,,,0.00,Wunderground v.1.15,2013-05-18 02:26:00,
2013-05-17 22:31:00,55.3,50.2,30.19,SE,145,0.0,0.0,83,0.00,,,0.00,Wunderground v.1.15,2013-05-18 02:31:00,
2013-05-17 22:36:00,55.1,50.4,30.19,SE,145,0.0,0.0,84,0.00,,,0.00,Wunderground v.1.15,2013-05-18 02:36:00,
2013-05-17 22:41:00,55.0,50.3,30.19,SE,145,0.0,0.0,84,0.00,,,0.00,Wunderground v.1.15,2013-05-18 02:41:00,
2013-05-17 22:46:00,54.8,50.4,30.19,SE,145,0.0,0.0,85,0.00,,,0.00,Wunderground v.1.15,2013-05-18 02:46:00,
2013-05-17 22:51:00,54.6,50.5,30.20,SE,145,0.0,0.0,86,0.00,,,0.00,Wunderground v.1.15,2013-05-18 02:51:00,
2013-05-17 22:56:00,54.5,51.3,30.20,SE,145,0.0,0.0,89,0.00,,,0.00,Wunderground v.1.15,2013-05-18 02:56:00,
2013-05-17 23:01:00,54.4,50.6,30.20,SE,145,0.0,0.0,87,0.00,,,0.00,Wunderground v.1.15,2013-05-18 03:01:00,
2013-05-17 23:06:00,54.3,50.8,30.20,SE,145,0.0,0.0,88,0.00,,,0.00,Wunderground v.1.15,2013-05-18 03:06:00,
2013-05-17 23:11:00,54.2,50.7,30.20,SE,145,0.0,0.0,88,0.00,,,0.00,Wunderground v.1.15,2013-05-18 03:11:00,
2013-05-17 23:16:00,54.1,50.9,30.20,SE,145,0.0,0.0,89,0.00,,,0.00,Wunderground v.1.15,2013-05-18 03:16:00,
2013-05-17 23:21:00,54.0,50.8,30.21,SE,145,0.0,0.0,89,0.00,,,0.00,Wunderground v.1.15,2013-05-18 03:21:00,
2013-05-17 23:26:00,53.9,50.7,30.21,SE,145,0.0,0.0,89,0.00,,,0.00,Wunderground v.1.15,2013-05-18 03:26:00,
2013-05-17 23:31:00,53.7,50.8,30.21,SE,145,0.0,0.0,90,0.00,,,0.00,Wunderground v.1.15,2013-05-18 03:31:00,
2013-05-17 23:36:00,53.6,50.7,30.21,SE,145,0.0,0.0,90,0.00,,,0.00,Wunderground v.1.15,2013-05-18 03:36:00,
2013-05-17 23:41:00,53.5,50.6,30.21,SE,145,0.0,0.0,90,0.00,,,0.00,Wunderground v.1.15,2013-05-18 03:41:00,
2013-05-17 23:46:00,53.3,50.4,30.21,SE,145,0.0,0.0,90,0.00,,,0.00,Wunderground v.1.15,2013-05-18 03:46:00,
2013-05-17 23:51:00,53.2,50.3,30.21,SE,145,0.0,0.0,90,0.00,,,0.00,Wunderground v.1.15,2013-05-18 03:51:00,
2013-05-17 23:56:00,53.1,50.2,30.21,SE,145,0.0,0.0,90,0.00,,,0.00,Wunderground v.1.15,2013-05-18 03:56:00,